Terminal Aerodrome Forecast
Issued by NWS Cleveland, OH

Home | Current Version | Previous Version | Graphics & Text | Print | Product List | Glossary On
Versions: 1 2 3 4 5 6 7 8 9 10 11 12 13 14 15 16 17 18 19 20 21
000
FTUS41 KCLE 260500
TAFYNG
TAF
KYNG 260534Z 2606/2706 15006KT P6SM FEW040 SCT250
     FM261500 21006KT P6SM SCT040 BKN150
     FM270400 25005KT P6SM VCTS SCT025 OVC035CB=

USA.gov is the U.S. government's official web portal to all federal, state and local government web resources and services.